EN

Hourly Weather Kyslyak

Today, 25 July, Sunday

Time Temperature Precipitation Wind Pressure Humidity
00:00 +20°C° 0 mm 0 mps 744 mmHg 60%
01:00 +19°C° 0 mm 0 mps 745 mmHg 60%
02:00 +21°C° 0 mm 1 mps 745 mmHg 60%
03:00 +19°C° 0 mm 0 mps 745 mmHg 60%
04:00 +19°C° 0 mm 0 mps 745 mmHg 61%
05:00 +19°C° 0 mm 0 mps 745 mmHg 61%
06:00 +20°C° 0 mm 0 mps 745 mmHg 62%
07:00 +20°C° 0 mm 0 mps 745 mmHg 63%
08:00 +21°C° 0 mm 0 mps 745 mmHg 64%
09:00 +24°C° 0 mm 1 mps 746 mmHg 59%
10:00 +25°C° 0 mm 1 mps 746 mmHg 54%
11:00 +26°C° 0 mm 1 mps 746 mmHg 50%
12:00 +27°C° 0 mm 1 mps 746 mmHg 46%
13:00 +28°C° 0 mm 1 mps 746 mmHg 42%
14:00 +28°C° 0 mm 1 mps 746 mmHg 38%
15:00 +28°C° 0 mm 1 mps 746 mmHg 42%
16:00 +28°C° 0 mm 1 mps 745 mmHg 45%
17:00 +27°C° 0 mm 1 mps 745 mmHg 48%
18:00 +25°C° 0 mm 1 mps 745 mmHg 53%
19:00 +24°C° 0 mm 2 mps 745 mmHg 57%
20:00 +21°C° 0 mm 2 mps 746 mmHg 61%
21:00 +21°C° 0 mm 2 mps 746 mmHg 59%
22:00 +21°C° 0 mm 2 mps 746 mmHg 57%
23:00 +21°C° 0 mm 2 mps 746 mmHg 55%

Tomorrow, 26 July, Monday

Time Temperature Precipitation Wind Pressure Humidity
00:00 +21°C° 0 mm 2 mps 746 mmHg 56%
01:00 +20°C° 0 mm 2 mps 746 mmHg 56%
02:00 +20°C° 0 mm 2 mps 746 mmHg 57%
03:00 +20°C° 0 mm 2 mps 746 mmHg 59%
04:00 +20°C° 0 mm 2 mps 746 mmHg 61%
05:00 +20°C° 0 mm 2 mps 746 mmHg 62%
06:00 +21°C° 0 mm 2 mps 746 mmHg 63%
07:00 +21°C° 0 mm 2 mps 746 mmHg 64%
08:00 +23°C° 0 mm 2 mps 746 mmHg 64%
09:00 +24°C° 0 mm 2 mps 747 mmHg 61%
10:00 +26°C° 0 mm 2 mps 747 mmHg 58%
11:00 +27°C° 0 mm 2 mps 747 mmHg 55%
12:00 +28°C° 0 mm 2 mps 747 mmHg 50%
13:00 +29°C° 0 mm 2 mps 746 mmHg 45%
14:00 +30°C° 0 mm 2 mps 746 mmHg 41%
15:00 +30°C° 0 mm 2 mps 746 mmHg 42%
16:00 +29°C° 0 mm 2 mps 746 mmHg 44%
17:00 +29°C° 0 mm 2 mps 746 mmHg 45%
18:00 +27°C° 0 mm 2 mps 746 mmHg 51%
19:00 +26°C° 0 mm 3 mps 746 mmHg 56%
20:00 +24°C° 0 mm 3 mps 746 mmHg 62%
21:00 +22°C° 0 mm 3 mps 746 mmHg 62%
22:00 +22°C° 0 mm 3 mps 746 mmHg 62%
23:00 +21°C° 0 mm 3 mps 746 mmHg 63%

Day after tomorrow, 27 July, Tuesday

Time Temperature Precipitation Wind Pressure Humidity
00:00 +21°C° 0 mm 3 mps 746 mmHg 64%
01:00 +20°C° 0 mm 3 mps 746 mmHg 65%
02:00 +20°C° 0 mm 3 mps 746 mmHg 67%
03:00 +20°C° 0 mm 3 mps 746 mmHg 67%
04:00 +19°C° 0 mm 3 mps 746 mmHg 67%
05:00 +19°C° 0 mm 3 mps 746 mmHg 68%
06:00 +21°C° 0 mm 3 mps 746 mmHg 64%
07:00 +23°C° 0 mm 4 mps 746 mmHg 59%
08:00 +26°C° 0 mm 4 mps 746 mmHg 55%
09:00 +28°C° 0 mm 5 mps 746 mmHg 51%
10:00 +29°C° 0 mm 5 mps 746 mmHg 47%
11:00 +30°C° 0 mm 5 mps 746 mmHg 43%
12:00 +32°C° 0 mm 5 mps 745 mmHg 41%
13:00 +33°C° 0 mm 5 mps 745 mmHg 38%
14:00 +33°C° 0 mm 5 mps 745 mmHg 36%
15:00 +33°C° 0 mm 5 mps 745 mmHg 39%
16:00 +33°C° 0 mm 4 mps 745 mmHg 42%
17:00 +32°C° 0 mm 4 mps 745 mmHg 44%
18:00 +29°C° 0 mm 3 mps 744 mmHg 49%
19:00 +28°C° 0 mm 3 mps 744 mmHg 54%
20:00 +26°C° 0 mm 3 mps 744 mmHg 59%
21:00 +25°C° 0.1 mm 3 mps 744 mmHg 61%
22:00 +24°C° 0.1 mm 3 mps 744 mmHg 64%
23:00 +24°C° 0.1 mm 3 mps 744 mmHg 66%

28 July, Wednesday

Time Temperature Precipitation Wind Pressure Humidity
00:00 +22°C° 0.2 mm 3 mps 744 mmHg 70%
01:00 +21°C° 0.2 mm 2 mps 744 mmHg 74%
02:00 +20°C° 0.2 mm 2 mps 743 mmHg 78%
03:00 +20°C° 0 mm 2 mps 743 mmHg 78%
04:00 +20°C° 0 mm 2 mps 743 mmHg 78%
05:00 +20°C° 0 mm 3 mps 743 mmHg 78%
06:00 +22°C° 0 mm 3 mps 743 mmHg 72%
07:00 +25°C° 0 mm 3 mps 743 mmHg 66%
08:00 +27°C° 0 mm 4 mps 743 mmHg 61%
09:00 +28°C° 0 mm 4 mps 743 mmHg 57%
10:00 +30°C° 0 mm 4 mps 743 mmHg 53%
11:00 +31°C° 0 mm 3 mps 742 mmHg 50%
12:00 +33°C° 0 mm 3 mps 742 mmHg 48%
13:00 +34°C° 0 mm 4 mps 742 mmHg 47%
14:00 +34°C° 0 mm 4 mps 742 mmHg 45%
15:00 +34°C° 0 mm 3 mps 742 mmHg 46%
16:00 +34°C° 0 mm 3 mps 741 mmHg 47%
17:00 +34°C° 0 mm 3 mps 741 mmHg 48%
18:00 +31°C° 0 mm 3 mps 741 mmHg 53%
19:00 +29°C° 0 mm 2 mps 741 mmHg 59%
20:00 +27°C° 0 mm 2 mps 741 mmHg 65%
21:00 +26°C° 0 mm 1 mps 741 mmHg 67%
22:00 +26°C° 0 mm 1 mps 741 mmHg 68%
23:00 +25°C° 0 mm 1 mps 741 mmHg 70%

29 July, Thursday

Time Temperature Precipitation Wind Pressure Humidity
00:00 +24°C° 0.4 mm 2 mps 741 mmHg 74%
01:00 +23°C° 0.4 mm 2 mps 740 mmHg 77%
02:00 +21°C° 0.4 mm 2 mps 740 mmHg 80%
03:00 +21°C° 0.5 mm 2 mps 740 mmHg 81%
04:00 +21°C° 0.5 mm 2 mps 740 mmHg 82%
05:00 +21°C° 0.5 mm 2 mps 740 mmHg 83%
06:00 +23°C° 0 mm 2 mps 740 mmHg 77%
07:00 +25°C° 0 mm 3 mps 740 mmHg 71%
08:00 +27°C° 0 mm 4 mps 740 mmHg 66%
09:00 +28°C° 0 mm 4 mps 740 mmHg 62%
10:00 +29°C° 0 mm 4 mps 740 mmHg 58%
11:00 +32°C° 0 mm 4 mps 740 mmHg 55%
12:00 +32°C° 0 mm 5 mps 740 mmHg 55%
13:00 +32°C° 0 mm 5 mps 740 mmHg 55%
14:00 +32°C° 0 mm 6 mps 740 mmHg 55%
15:00 +32°C° 0 mm 6 mps 740 mmHg 56%
16:00 +30°C° 0 mm 6 mps 740 mmHg 57%
17:00 +29°C° 0 mm 6 mps 740 mmHg 57%
18:00 +27°C° 0 mm 5 mps 740 mmHg 63%
19:00 +25°C° 0 mm 4 mps 740 mmHg 69%
20:00 +24°C° 0 mm 3 mps 741 mmHg 75%
21:00 +22°C° 0 mm 3 mps 741 mmHg 79%
22:00 +21°C° 0 mm 3 mps 741 mmHg 84%
23:00 +20°C° 0 mm 3 mps 741 mmHg 88%

30 July, Friday

Time Temperature Precipitation Wind Pressure Humidity
00:00 +19°C° 0 mm 3 mps 741 mmHg 89%
01:00 +19°C° 0 mm 3 mps 741 mmHg 90%
02:00 +18°C° 0 mm 3 mps 742 mmHg 91%
03:00 +18°C° 0 mm 3 mps 742 mmHg 91%
04:00 +18°C° 0 mm 3 mps 742 mmHg 91%
05:00 +17°C° 0 mm 3 mps 742 mmHg 91%
06:00 +19°C° 0 mm 3 mps 742 mmHg 82%
07:00 +21°C° 0 mm 3 mps 742 mmHg 74%
08:00 +24°C° 0 mm 3 mps 743 mmHg 66%
09:00 +25°C° 0 mm 3 mps 743 mmHg 59%
10:00 +27°C° 0 mm 3 mps 743 mmHg 52%
11:00 +28°C° 0 mm 3 mps 743 mmHg 45%
12:00 +29°C° 0 mm 3 mps 742 mmHg 43%
13:00 +29°C° 0 mm 3 mps 742 mmHg 42%
14:00 +30°C° 0 mm 3 mps 742 mmHg 40%
15:00 +30°C° 0 mm 3 mps 742 mmHg 40%
16:00 +30°C° 0 mm 2 mps 742 mmHg 41%
17:00 +30°C° 0 mm 2 mps 742 mmHg 41%
18:00 +28°C° 0 mm 2 mps 742 mmHg 47%
19:00 +26°C° 0 mm 2 mps 742 mmHg 53%
20:00 +24°C° 0 mm 1 mps 742 mmHg 58%
21:00 +23°C° 0 mm 1 mps 742 mmHg 59%
22:00 +23°C° 0 mm 2 mps 742 mmHg 61%
23:00 +21°C° 0 mm 2 mps 742 mmHg 62%
Show more